(64520) = 2001 VF98

Discovered at Socorro on 2001-11-15 by LINEAR.

Orbit

Orbit type: Main Belt

Note: WebGL enabled browser required.

epoch2024-03-31.0
epoch JD2460400.5
perihelion date2021-11-19.57405
perihelion JD2459538.07406
argument of perihelion (°)165.98520
ascending node (°)177.16945
inclination (°)15.35034
eccentricity0.1581889
perihelion distance (AU)2.1891837
Tisserand w.r.t. Jupiter3.3
ΔV w.r.t. Earth (km/sec)10.4
semimajor axis (AU)2.6005642
mean anomaly (°)202.68636
mean daily motion (°/day)0.23501890
aphelion distance (AU)3.012
period (years)4.19
P-vector [x]0.95751709
P-vector [y]-0.28346034
P-vector [z]-0.05302126
Q-vector [x]0.28808008
Q-vector [y]0.94856068
Q-vector [z]0.13131071
absolute magnitude15.01
phase slope0.15
uncertainty0
referenceE2024-GI3
observations used1498
oppositions21
arc length (days)11516
first opposition used1992
last opposition used2024
residual rms (arc-secs)0.69
perturbers coarse indicatorM-v
perturbers precise indicator003Ek
first observation date used1992-10-01.0
last observation date used2024-04-12.0
computer nameMPCLINUX
JD of orbit computation2456612.589951
perihelion JD uncertainty (days)7.3610E-05
argument of perihelion uncertainty (°)2.5623E-05
ascending node uncertainty (°)1.7605E-05
inclination uncertainty (°)6.2320E-06
eccentricity uncertainty 4.7341E-08
perihelion distance uncertainty (AU)1.2373E-07
Minimum Orbit Intersection Distances (in AU)
for orbit epoch: 2460400.5, reference: E2024-GI3
Mercury1.80993
Venus1.46859
Earth1.18517
Mars0.80969
Jupiter2.42626
Saturn6.30809
Uranus15.4357
Neptune27.3981

Observations

1506 total observations over interval: 1992 10 01.29306 – 2024 03 17.461404
These data are available for download (format description).

Date (UT) J2000 RA J2000 Dec Magn Location Ref
1992 10 01.29306 00 51 48.46 -01 07 39.3   261 – Palomar Mountain-DSS MPS 71586
1992 10 01.32778 00 51 46.98 -01 08 08.6   261 – Palomar Mountain-DSS MPS 71586
1999 04 12.21515 12 37 29.75 +02 32 37.2 19.0   704 – Lincoln Laboratory ETS, New Mexico MPS 58948
1999 04 12.23228 12 37 28.86 +02 32 46.3 19.2   704 – Lincoln Laboratory ETS, New Mexico MPS 58948
1999 04 12.24947 12 37 28.24 +02 32 55.4 19.0   704 – Lincoln Laboratory ETS, New Mexico MPS 58948
1999 04 12.26662 12 37 27.43 +02 33 04.5 19.0   704 – Lincoln Laboratory ETS, New Mexico MPS 58948
1999 04 12.28375 12 37 26.47 +02 33 13.5 19.7   704 – Lincoln Laboratory ETS, New Mexico MPS 58949
2000 06 01.36086 20 29 00.47 +01 58 00.1 18.7   704 – Lincoln Laboratory ETS, New Mexico MPS 61179
2000 06 01.37410 20 29 00.75 +01 58 02.9 19.4   704 – Lincoln Laboratory ETS, New Mexico MPS 61179
2000 06 01.38737 20 29 00.88 +01 58 10.0 19.4   704 – Lincoln Laboratory ETS, New Mexico MPS 61179
2000 06 01.40072 20 29 01.10 +01 58 13.9 19.2   704 – Lincoln Laboratory ETS, New Mexico MPS 61179
2000 06 01.41399 20 29 01.25 +01 58 19.4 19.0   704 – Lincoln Laboratory ETS, New Mexico MPS 61179
2000 07 11.34544 20 19 06.71 +03 38 50.3 17.8   704 – Lincoln Laboratory ETS, New Mexico MPS 58949
2000 07 11.37024 20 19 05.63 +03 38 46.2 17.4   704 – Lincoln Laboratory ETS, New Mexico MPS 58949
2000 07 11.38257 20 19 05.05 +03 38 45.2 18.2   704 – Lincoln Laboratory ETS, New Mexico MPS 58949
2000 08 03.24655 20 01 32.42 +01 16 46.2 18.9   704 – Lincoln Laboratory ETS, New Mexico MPS 58949
2000 08 03.26074 20 01 31.79 +01 16 39.0 17.8   704 – Lincoln Laboratory ETS, New Mexico MPS 58949
2000 08 03.28924 20 01 30.39 +01 16 22.0 18.4   704 – Lincoln Laboratory ETS, New Mexico MPS 58949
2000 08 31.24111 19 48 15.77 -03 54 19.6 18.5   704 – Lincoln Laboratory ETS, New Mexico MPS 58949
2000 08 31.25458 19 48 15.62 -03 54 29.4 18.4   704 – Lincoln Laboratory ETS, New Mexico MPS 58949
2000 08 31.28696 19 48 15.27 -03 54 51.3 18.6   704 – Lincoln Laboratory ETS, New Mexico MPS 58949
2000 08 31.30042 19 48 15.22 -03 55 01.0 18.6   704 – Lincoln Laboratory ETS, New Mexico MPS 58949
2000 09 21.13187 19 52 41.02 -07 40 30.2 19.4   704 – Lincoln Laboratory ETS, New Mexico MPS 58949
2000 09 21.14629 19 52 41.35 -07 40 38.9 19.1   704 – Lincoln Laboratory ETS, New Mexico MPS 58949
2000 09 21.16154 19 52 41.84 -07 40 48.1 19.3   704 – Lincoln Laboratory ETS, New Mexico MPS 58949
2000 09 21.17684 19 52 42.26 -07 40 56.3 19.1   704 – Lincoln Laboratory ETS, New Mexico MPS 58949
2001 11 15.37328 06 37 55.32 +01 34 19.6 19.1   704 – Lincoln Laboratory ETS, New Mexico MPS 42198
2001 11 15.38773 06 37 55.03 +01 34 13.2 19.6   704 – Lincoln Laboratory ETS, New Mexico MPS 42198
2001 11 15.40217 06 37 54.65 +01 34 08.7 19.6   704 – Lincoln Laboratory ETS, New Mexico MPS 42198
2001 11 15.41665 06 37 54.33 +01 34 03.0 19.6   704 – Lincoln Laboratory ETS, New Mexico MPS 42198
2001 11 15.43202 06 37 54.06 +01 33 57.2 19.2   704 – Lincoln Laboratory ETS, New Mexico MPS 42198
2001 11 18.43784 06 36 48.02 +01 15 51.0 19.5   704 – Lincoln Laboratory ETS, New Mexico MPS 42198
2001 11 18.45268 06 36 47.65 +01 15 46.9 19.8   704 – Lincoln Laboratory ETS, New Mexico MPS 42198
2001 11 18.46752 06 36 47.29 +01 15 41.6 19.7   704 – Lincoln Laboratory ETS, New Mexico MPS 42198
2001 11 18.48241 06 36 46.91 +01 15 37.4 20.2   704 – Lincoln Laboratory ETS, New Mexico MPS 42198
2001 12 07.29484 06 24 51.91 -00 06 21.8 18.9   704 – Lincoln Laboratory ETS, New Mexico MPS 44861
2001 12 07.30987 06 24 51.14 -00 06 23.8 19.0   704 – Lincoln Laboratory ETS, New Mexico MPS 44861
2001 12 07.33998 06 24 49.62 -00 06 29.1 18.8   704 – Lincoln Laboratory ETS, New Mexico MPS 44861
2001 12 07.35507 06 24 48.81 -00 06 31.3 19.1   704 – Lincoln Laboratory ETS, New Mexico MPS 44861
2003 03 07.28984 11 49 14.17 -00 21 34.1 18.3 R 699 – Lowell Observatory-LONEOS MPS 74141
2003 03 07.30592 11 49 13.37 -00 21 25.1   699 – Lowell Observatory-LONEOS MPS 74141
2003 03 07.32187 11 49 12.70 -00 21 14.2   699 – Lowell Observatory-LONEOS MPS 74141
2003 03 07.33784 11 49 11.88 -00 21 06.4   699 – Lowell Observatory-LONEOS MPS 74141
2003 03 09.30792 11 47 43.32 -00 02 58.3 18.8 C 704 – Lincoln Laboratory ETS, New Mexico MPS 293881
2003 03 09.32097 11 47 42.81 -00 02 51.8 18.5 C 704 – Lincoln Laboratory ETS, New Mexico MPS 293881
2003 03 09.33401 11 47 42.21 -00 02 44.7 18.7 C 704 – Lincoln Laboratory ETS, New Mexico MPS 293881
2003 03 09.34745 11 47 41.47 -00 02 36.6 18.8 C 704 – Lincoln Laboratory ETS, New Mexico MPS 293881
2003 03 24.21764 11 36 11.91 +02 18 29.9 18.9 V 691 – Steward Observatory, Kitt Peak-Spacewatch MPS 76045
2003 03 24.24433 11 36 10.65 +02 18 45.0 18.9 V 691 – Steward Observatory, Kitt Peak-Spacewatch MPS 76045
2003 03 24.27082 11 36 09.41 +02 19 00.1 18.9 V 691 – Steward Observatory, Kitt Peak-Spacewatch MPS 76045
2003 03 25.31828 11 35 21.84 +02 28 49.8 18.8 R 699 – Lowell Observatory-LONEOS MPS 76045
2003 03 25.33856 11 35 20.94 +02 29 02.1   699 – Lowell Observatory-LONEOS MPS 76045
2003 03 25.35350 11 35 20.26 +02 29 10.0   699 – Lowell Observatory-LONEOS MPS 76045
2003 03 25.36847 11 35 19.56 +02 29 18.1   699 – Lowell Observatory-LONEOS MPS 76045
2003 03 26.20098 11 34 42.42 +02 37 05.1 18.8   644 – Palomar Mountain/NEAT MPS 76045
2003 03 26.22347 11 34 41.39 +02 37 17.8 18.9   644 – Palomar Mountain/NEAT MPS 76045
2003 03 26.24468 11 34 40.40 +02 37 29.3 18.9   644 – Palomar Mountain/NEAT MPS 76045
2003 04 01.30168 11 30 19.46 +03 32 29.9 19.6   704 – Lincoln Laboratory ETS, New Mexico MPS 76045
2003 04 01.31332 11 30 19.02 +03 32 37.7 19.7   704 – Lincoln Laboratory ETS, New Mexico MPS 76045
2003 04 01.32487 11 30 18.59 +03 32 42.5 19.1   704 – Lincoln Laboratory ETS, New Mexico MPS 76045
2003 04 01.33643 11 30 18.03 +03 32 49.3 19.5   704 – Lincoln Laboratory ETS, New Mexico MPS 76045
2003 04 04.26479 11 28 21.27 +03 58 09.0 19.8   704 – Lincoln Laboratory ETS, New Mexico MPS 76045
2003 04 04.27715 11 28 20.74 +03 58 14.5 19.3   704 – Lincoln Laboratory ETS, New Mexico MPS 76045
2003 04 04.28989 11 28 20.20 +03 58 22.9 19.5   704 – Lincoln Laboratory ETS, New Mexico MPS 76045
2003 04 04.30189 11 28 19.70 +03 58 28.5 18.8   704 – Lincoln Laboratory ETS, New Mexico MPS 76045
2003 04 06.16531 11 27 09.36 +04 14 03.3 19.9 V 691 – Steward Observatory, Kitt Peak-Spacewatch MPS 76045
2003 04 06.19566 11 27 08.17 +04 14 18.5 20.3 V 691 – Steward Observatory, Kitt Peak-Spacewatch MPS 76045
2003 04 06.22475 11 27 07.10 +04 14 32.9 20.0 V 691 – Steward Observatory, Kitt Peak-Spacewatch MPS 76045
2003 04 09.23761 11 25 19.90 +04 38 45.2 19.7   704 – Lincoln Laboratory ETS, New Mexico MPS 76045
2003 04 09.26097 11 25 19.08 +04 38 56.8 19.6   704 – Lincoln Laboratory ETS, New Mexico MPS 76045
2003 04 09.27240 11 25 18.80 +04 39 02.5 20.2   704 – Lincoln Laboratory ETS, New Mexico MPS 76045
2003 04 09.28400 11 25 18.31 +04 39 08.9 20.0   704 – Lincoln Laboratory ETS, New Mexico MPS 76045
2004 05 14.34757 18 35 44.89 -00 37 35.0 19.0   704 – Lincoln Laboratory ETS, New Mexico MPS 107175
2004 05 14.35691 18 35 44.78 -00 37 30.3 19.0   704 – Lincoln Laboratory ETS, New Mexico MPS 107175
2004 05 14.36621 18 35 44.76 -00 37 26.4 19.3   704 – Lincoln Laboratory ETS, New Mexico MPS 107175
2004 05 14.37552 18 35 44.61 -00 37 21.5 19.5   704 – Lincoln Laboratory ETS, New Mexico MPS 107175
2004 05 14.38484 18 35 44.55 -00 37 17.5 19.0   704 – Lincoln Laboratory ETS, New Mexico MPS 107175
2004 06 13.27771 18 21 07.37 +02 12 53.2 18.2   704 – Lincoln Laboratory ETS, New Mexico MPS 109508
2004 06 13.28777 18 21 06.86 +02 12 55.2 19.1   704 – Lincoln Laboratory ETS, New Mexico MPS 109508
2004 06 13.30775 18 21 05.89 +02 12 58.3 18.8   704 – Lincoln Laboratory ETS, New Mexico MPS 109508
2004 06 13.31780 18 21 05.37 +02 13 00.0 19.1   704 – Lincoln Laboratory ETS, New Mexico MPS 109508
2004 08 20.15769 17 47 02.42 -03 31 15.9 18.5   704 – Lincoln Laboratory ETS, New Mexico MPS 112035
2004 08 20.18712 17 47 02.95 -03 31 32.1 19.3   704 – Lincoln Laboratory ETS, New Mexico MPS 112035
2004 08 20.19688 17 47 03.14 -03 31 38.4 19.5   704 – Lincoln Laboratory ETS, New Mexico MPS 112035
